Regional Weather Roundup
Issued by NWS

Home | Current Version | Previous Version | Graphics & Text | Print | Product List | Glossary On
Versions: 1 2 3 4 5 6 7 8 9 10 11 12 13 14 15 16 17 18 19 20 21 22 23 24 25 26 27 28 29 30 31 32 33 34 35 36 37 38 39 40 41 42 43 44 45 46 47 48 49 50
000
ASUS45 KSLC 011110
RWRUT

UTAH REGIONAL WEATHER ROUNDUP
NATIONAL WEATHER SERVICE SALT LAKE CITY UT
400 AM MST SUN FEB 01 2015

UTZ001>011-023>025-011200-

NORTHERN UTAH

CITY           SKY/WX    TMP DP  RH WIND       PRES   REMARKS
BRIGHAM CITY   CLEAR     27  25  90 N3        30.19S
HILL AFB       CLEAR     30  22  70 SE9       30.17S WCI  22
LOGAN          CLEAR     26  22  84 CALM      30.19F
OGDEN          CLEAR     29  24  82 S8        30.18S WCI  21
PROVO AIRPORT  CLEAR     27  21  80 CALM      30.20R
SALT LAKE CITY CLEAR     28  24  85 SE6       30.19S WCI  22
VERNAL         CLEAR     27  22  81 NE8       30.08S WCI  19
WENDOVER       CLEAR     28  19  69 CALM      30.19S
HEBER CITY     CLEAR     21  19  93 CALM      30.18R
WEST JORDAN    CLEAR     28  23  80 CALM      30.20R

$$

UTZ012>022-026-027-011200-

SOUTHERN/CENTRAL UTAH

CITY           SKY/WX    TMP DP  RH WIND       PRES   REMARKS
BLANDING       CLEAR     31  31 100 SE3       30.12S
BRYCE CANYON   CLEAR     20  17  88 W9        30.13F WCI   9
CEDAR CITY     CLEAR     25  22  88 CALM      30.16R
DELTA          PTCLDY    25  25 100 CALM      30.19F
HANKSVILLE       N/A     30  30 100 CALM      30.12R VSB 1/2
MILFORD        CLEAR     26  23  88 CALM      30.19R
MOAB/CYNLANDS  FOG       31  30  96 CALM      30.08R VSB 1/2
PRICE          PTCLDY    35  14  42 N12       30.10R WCI  27
ST GEORGE      SUNNY     41  30  65 CALM      30.13R

$$

REGIONAL REPORTS     COLORADO/ARIZONA

CITY           SKY/WX    TMP DP  RH WIND       PRES   REMARKS
CRAIG, CO      CLEAR     19  15  84 CALM      30.11R
GRAND JUNCTION CLEAR     28  27  96 E3        30.10R
RIFLE          CLEAR     26  22  84 CALM      30.11R
MONTROSE       PTCLDY    29  26  89 SE9       30.12R WCI  20
CORTEZ         CLEAR     32  28  85 NW3       30.04R
PAGE, AZ       NOT AVBL
GRAND CANYON   CLEAR     22  20  92 CALM      30.11S
KINGMAN        CLEAR     39  35  86 E7        30.07S WCI  34
FLAGSTAFF      CLEAR     30  27  88 CALM      30.08R

$$

REGIONAL REPORTS    NEVADA/IDAHO/WYOMING

CITY           SKY/WX    TMP DP  RH WIND       PRES   REMARKS
LAS VEGAS, NV  CLEAR     47  38  71 S6        30.06R
ELY            CLEAR     20  17  88 S6        30.22R WCI  12
ELKO           CLEAR     23  20  88 CALM      30.22F
POCATELLO, ID  CLOUDY    29  28  96 N5        30.21R WCI  24
BURLEY         FOG       22  20  92 CALM      30.18S VSB 3/4
EVANSTON, WY   CLEAR     22  18  85 SW12      30.11F WCI  10
ROCK SPRINGS   MOCLDY    20  12  71 W10       30.08S WCI   9

$$



USA.gov is the U.S. government's official web portal to all federal, state and local government web resources and services.